Content
SEND FEEDBACK

Daily
Averages
Monthly
Summary
Canada

QUEBEC CITY, QUEBEC


Home > North America > Canada > Quebec
Elevation: 239 feet     Latitude: 46 48N     Longitude: 071 23W

WEATHER
 
SELECT A DAY
Number of Records: 195,714;   Date Range: 6/30/96 - 10/18/14
 
SHARE

PRINT THIS DATA

[ ← Previous Day ]
WEATHER ALMANAC - JANUARY 16, 2013
[ Next Day → ]
[ °C ]   °F
Weather ElementAverageHighLow
Temperature22.1 °F28.4 °F (3:00 pm)12 °F (7:00 am)
Dewpoint15.7 °F24 °F (10:00 pm) (7:00 pm)
Humidity77.1 %92 % (7:00 am)61 % (4:00 pm)
Barometer28.98 in30.20 in (2:00 am) (7:00 pm)
Wind Speed3.7 mph11.5 mph (12:14 am)
Weather ElementAverage
Visibility15.6 mi
Wind DirectionESE (109.7 °)

Weather ElementTotal
Precipitation---
Heating Degree Days44.8 (Base 65)
Averaged from 31 records on January 16, 2013
WEATHER CONDITIONS BREAKOUT
WIND DIRECTION BREAKOUT
WEATHER BY HOUR - JANUARY 16, 2013
[ °C ]   °F
Local TimeTemperatureDewpointHumidityBarometerVisibilityWind DirectionWind SpeedGust SpeedPrecipitationEventsConditions
12:14 AM23.0 °F0.0 °F15.0 miWest (260°)11.5 mphMostly Cloudy
1:00 AM21.2 °F15.8 °F80 %30.19 in15.0 miWSW (240°)6.9 mphPartly Cloudy
2:00 AM21.2 °F15.8 °F80 %30.20 in15.0 miSW (230°)6.9 mphPartly Cloudy
3:00 AM19.4 °F14.0 °F80 %30.19 in15.0 miWSW (250°)8.1 mphPartly Cloudy
4:00 AM16.0 °F13.0 °F85 %30.16 inWSW (240°)1.2 mph
4:00 AM17.6 °F14.0 °F86 %30.17 in15.0 miSW (220°)4.6 mphPartly Cloudy
5:00 AM15.8 °F12.2 °F86 %30.14 in15.0 miWest (270°)3.5 mphScattered Clouds
6:00 AM15.8 °F10.4 °F79 %30.12 in15.0 miNNE (20°)3.5 mphScattered Clouds
7:00 AM12.0 °F11.0 °F92 %30.12 inNNE (30°)1.2 mph
7:00 AM14.0 °F8.6 °F79 %30.12 in15.0 miNE (40°)2.3 mphScattered Clouds
8:00 AM14.0 °F8.6 °F79 %30.12 in15.0 miNNE (20°)4.6 mphScattered Clouds
9:00 AM14.0 °F8.6 °F79 %30.10 in20.0 miNorth (10°)5.8 mphMostly Cloudy
10:00 AM18.0 °F13.0 °F70 %30.06 inNorth3.5 mph
10:00 AM17.6 °F10.4 °F73 %30.07 in20.0 miNorth (10°)5.8 mphMostly Cloudy
11:00 AM21.2 °F14.0 °F74 %30.02 in20.0 miNE (50°)2.3 mphMostly Cloudy
12:00 PM23.0 °F15.8 °F74 %29.97 in15.0 miNE (40°)3.5 mphMostly Cloudy
1:00 PM25.0 °F18.0 °F66 %29.91 inENE (60°)3.5 mph
1:00 PM24.8 °F17.6 °F74 %29.91 in15.0 miNE (40°)3.5 mphMostly Cloudy
2:00 PM26.6 °F17.6 °F69 %29.88 in15.0 miNNE (20°)3.5 mphScattered Clouds
3:00 PM28.4 °F19.4 °F69 %29.84 in15.0 miENE (60°)4.6 mphMostly Cloudy
4:00 PM28.0 °F20.0 °F61 %29.82 inENE (60°)2.3 mph
4:00 PM28.4 °F17.6 °F64 %29.83 in15.0 miNE (40°)4.6 mphPartly Cloudy
5:00 PM26.6 °F17.6 °F69 %29.81 in15.0 miNE (50°)3.5 mphMostly Cloudy
6:00 PM28.4 °F19.4 °F69 %29.78 in15.0 miCalmOvercast
7:00 PM26.0 °F21.0 °F76 %29.75 inEast (100°)1.2 mph
7:00 PM26.6 °F21.2 °F80 %29.75 in15.0 miEast (100°)2.3 mphSnowLight Snow Showers
8:00 PM26.6 °F21.2 °F80 %29.73 in15.0 miNW (320°)4.6 mphOvercast
9:00 PM26.6 °F21.2 °F80 %29.71 in15.0 miNorth (350°)3.5 mphOvercast
10:00 PM26.0 °F24.0 °F87 %29.69 inWest (270°)2.3 mph
10:00 PM26.6 °F23.0 °F86 %29.69 in15.0 miCalmOvercast
11:00 PM26.6 °F23.0 °F86 %29.67 in15.0 miCalmOvercast
Hourly data recorded from CYQB, located miles away from Quebec City, Quebec







STORIES FROM OUR PARTNERS